This is the latest recevied weather packets stored in our database for station/object KC4JY. If no packets are shown the sender has not sent any weather packets the latest 1 day(s).
| Time | Temp. | Humidity | Pressure | Rain* | Wind** | Luminosity | Snow |
|---|---|---|---|---|---|---|---|
| 1836274724 | 20.56° C | 90% | 1017.8 hPa | 0 mm | 0 m/s | - | - |
| 1778047202 | 16.11° C | 82% | 1015.6 hPa | 0 mm | 0.89 m/s, 205° | - | - |
| 1778046360 | 16.11° C | 81% | 1015.6 hPa | 0 mm | 1.79 m/s, 215° | - | - |
| 1778045456 | 16.11° C | 80% | 1015.8 hPa | 0 mm | 1.34 m/s, 215° | - | - |
| 1778044565 | 16.67° C | 80% | 1016.2 hPa | 0 mm | 1.79 m/s, 208° | - | - |
| 1778043668 | 16.67° C | 80% | 1016.3 hPa | 0 mm | 2.24 m/s, 202° | - | - |
| 1778042752 | 16.67° C | 80% | 1016.3 hPa | 0 mm | 2.24 m/s, 207° | - | - |
| 1778041847 | 16.11° C | 80% | 1016.5 hPa | 0 mm | 1.79 m/s, 217° | - | - |
| 1778040944 | 16.67° C | 79% | 1016.5 hPa | 0 mm | 1.79 m/s, 201° | - | - |
| 1778040044 | 16.67° C | 78% | 1016.6 hPa | 0 mm | 1.79 m/s, 200° | - | - |
| 1778039127 | 16.67° C | 77% | 1016.8 hPa | 0 mm | 1.79 m/s, 202° | - | - |
| 1778038223 | 16.67° C | 77% | 1016.7 hPa | 0 mm | 1.79 m/s, 225° | - | - |
| 1778037310 | 17.22° C | 75% | 1016.7 hPa | 0 mm | 1.34 m/s, 216° | - | - |
| 1778036410 | 17.22° C | 75% | 1016.7 hPa | 0 mm | 2.24 m/s, 226° | - | - |
| 1778035525 | 17.78° C | 75% | 1016.8 hPa | 0 mm | 1.79 m/s, 202° | - | - |
| 1778034609 | 17.78° C | 74% | 1016.7 hPa | 0 mm | 1.79 m/s, 191° | - | - |
| 1778033708 | 18.33° C | 73% | 1016.7 hPa | 0 mm | 2.24 m/s, 207° | - | - |
| 1778032809 | 18.33° C | 72% | 1016.5 hPa | 0 mm | 2.68 m/s, 207° | - | - |
| 1778031909 | 18.89° C | 71% | 1016.5 hPa | 0 mm | 3.58 m/s, 215° | - | - |
| 1778031007 | 18.89° C | 70% | 1016.3 hPa | 0 mm | 3.13 m/s, 219° | - | - |
| 1778030162 | 19.44° C | 70% | 1016.2 hPa | 0 mm | 1.79 m/s, 211° | - | - |
| 1778029249 | 19.44° C | 69% | 1016 hPa | 0 mm | 3.58 m/s, 213° | - | - |
| 1778028332 | 20° C | 69% | 1015.9 hPa | 0 mm | 3.13 m/s, 198° | - | - |
| 1778027431 | 20° C | 69% | 1015.6 hPa | 0 mm | 3.13 m/s, 202° | - | - |
| 1778026513 | 20.56° C | 68% | 1015.5 hPa | 0 mm | 3.13 m/s, 186° | - | - |
* Rain latest hour (hover to see other rain measurements)
** Current wind speed in m/s (hover to see current wind gust speed)